Susqueda - Veïnat del Far (La Selva)





Hora UTC 01:50
Temperatura 6.0 ºC
Humedad 93.0 %
Presión 1012.8 hPa
Pluja 3.4 mm
Velocidad viento 3.2 km/h
Dirección viento N

Datos diarios 2024-04-18



Hora UTC (invierno +1h; verano +2h)
Temperatura (ºC) Humedad (%) Presión (hPa) Velocidad viento (km/h) Precipitación (mm)
Hora UTC Aire Humedad Presión Vel. Dir. Vel. Max Dir. Intent. máx 5 min.
00:05 6.1 93.0 1013.8 3.2 N 3.2 0.0
00:10 6.1 93.0 1013.6 1.6 N 4.8 3.0
00:15 5.9 92.0 1013.6 1.6 N 4.8 0.0
00:20 5.8 92.0 1013.6 0.0 N 4.8 0.0
00:25 5.9 93.0 1013.5 0.0 N 4.8 0.0
00:30 5.7 92.0 1013.5 0.0 N 3.2 0.2
00:35 5.6 92.0 1013.5 0.0 N 1.6 0.0
00:40 5.7 93.0 1013.4 0.0 N 6.4 0.2
00:45 5.8 93.0 1013.4 0.0 N 6.4 0.0
00:50 5.9 93.0 1013.3 1.6 N 3.2 0.0
00:55 5.9 93.0 1013.3 1.6 N 3.2 0.0
01:00 5.8 93.0 1013.2 0.0 N 4.8 0.0
01:05 5.8 93.0 1013.2 3.2 N 4.8 0.0
01:10 5.6 92.0 1013.2 0.0 N 4.8 0.0
01:15 5.4 92.0 1013.2 0.0 N 3.2 0.0
01:20 5.3 92.0 1013.1 0.0 N 1.6 0.0
01:25 5.3 93.0 1013.1 1.6 N 1.6 0.0
01:30 5.5 93.0 1013.1 0.0 N 1.6 0.0
01:35 5.6 93.0 1013.0 3.2 N 3.2 0.0
01:40 5.8 93.0 1013.0 1.6 N 3.2 0.0
01:45 5.9 93.0 1012.9 1.6 N 6.4 0.0
01:50 6.0 93.0 1012.8 3.2 N 6.4 0.0
Máxima 6.3 93.0 1013.8 3.2 N 6.4 3.0
Mínima 5.3 92.0 1012.8
Total 3.4